TimeMDT,TemperatureF,Dew PointF,Humidity,Sea Level PressureIn,VisibilityMPH,Wind Direction,Wind SpeedMPH,Gust SpeedMPH,PrecipitationIn,Events,Conditions,WindDirDegrees,DateUTC
12:53 AM,34.0,30.9,89,30.20,10.0,North,-9999.0,-,N/A,,Clear,0,2012-11-03 06:53:00
1:53 AM,33.1,30.0,89,30.20,10.0,WNW,6.9,-,N/A,,Clear,290,2012-11-03 07:53:00
2:53 AM,33.1,30.0,89,30.21,10.0,WNW,4.6,-,N/A,,Clear,290,2012-11-03 08:53:00
3:53 AM,32.0,28.9,88,30.20,10.0,WNW,5.8,-,N/A,,Clear,290,2012-11-03 09:53:00
4:53 AM,28.9,26.1,89,30.22,10.0,West,6.9,-,N/A,,Clear,260,2012-11-03 10:53:00
5:53 AM,28.0,25.0,88,30.25,10.0,Calm,Calm,-,N/A,,Clear,0,2012-11-03 11:53:00
6:53 AM,30.0,27.0,88,30.26,10.0,NW,4.6,-,N/A,,Clear,310,2012-11-03 12:53:00
7:53 AM,32.0,28.9,88,30.27,10.0,Calm,Calm,-,N/A,,Mostly Cloudy,0,2012-11-03 13:53:00
8:53 AM,36.0,30.9,82,30.28,10.0,Calm,Calm,-,N/A,,Scattered Clouds,0,2012-11-03 14:53:00
9:53 AM,45.0,37.0,74,30.26,10.0,Calm,Calm,-,N/A,,Clear,0,2012-11-03 15:53:00
10:53 AM,53.1,37.0,55,30.25,10.0,Calm,Calm,-,N/A,,Clear,0,2012-11-03 16:53:00
11:53 AM,57.9,35.1,42,30.23,10.0,Variable,6.9,-,N/A,,Clear,0,2012-11-03 17:53:00
12:53 PM,60.1,32.0,35,30.19,10.0,South,9.2,-,N/A,,Clear,170,2012-11-03 18:53:00
1:53 PM,62.1,32.0,32,30.16,10.0,South,8.1,-,N/A,,Clear,180,2012-11-03 19:53:00
2:53 PM,63.0,30.9,30,30.13,10.0,South,13.8,18.4,N/A,,Clear,180,2012-11-03 20:53:00
3:53 PM,64.0,30.9,29,30.11,10.0,SE,10.4,-,N/A,,Clear,130,2012-11-03 21:53:00
4:53 PM,62.1,26.1,25,30.11,10.0,SSW,9.2,-,N/A,,Clear,200,2012-11-03 22:53:00
5:53 PM,54.0,28.9,38,30.13,10.0,SSE,6.9,-,N/A,,Mostly Cloudy,160,2012-11-03 23:53:00
6:53 PM,48.9,28.9,46,30.15,10.0,SSE,8.1,-,N/A,,Clear,160,2012-11-04 00:53:00
7:53 PM,48.9,30.9,50,30.15,10.0,WSW,5.8,-,N/A,,Clear,250,2012-11-04 01:53:00
8:53 PM,46.0,30.0,54,30.16,10.0,SSW,6.9,-,N/A,,Clear,210,2012-11-04 02:53:00
9:53 PM,43.0,28.9,58,30.14,10.0,SW,8.1,-,N/A,,Clear,220,2012-11-04 03:53:00
10:53 PM,42.1,28.9,60,30.12,10.0,SW,9.2,-,N/A,,Clear,220,2012-11-04 04:53:00
11:53 PM,41.0,28.9,62,30.11,10.0,West,10.4,-,N/A,,Clear,260,2012-11-04 05:53:00